STARLINK-1994 (47589 NORAD) Tracking and Keplerian Element Data
This shows tracking and keplerian element data for the satellite.
Feedback or suggestion? Click here.
Element | Value |
Catalog | 47589 |
Name | STARLINK-1994 |
Epoch Orbit | 182 |
Epoch Day | 55.91668981 |
Epoch Year | 2021 |
RAAN | 22.5439 |
Inclination | 53.0487 |
Eccentricity | 0.0001223 |
Argument of Perigee | 69.8957 |
Mean Anonmoly | 68.145 |
Mean Motion | 15.62748472 |
Decay Rate | -4.07E-06 |
L1 | 1 47589U 21009AT 21055.91668981 -.00000407 00000-0 13871-5 0 9993 |
L2 | 2 47589 53.0487 22.5439 0001223 69.8957 68.1450 15.62748472 1820 |
Live tracking and technical data element details for STARLINK-1994 (NORAD 47589). STARLINK-1994 can be tracked NOW for your location showing map with azimuth and elevation plus other details from your city location.
Track the satellite on the map from your city or location and see movement details for azimuth, elevation, latitude, longitude, range, height, and movement on the map or in text.
IsCatalogInMostPopularTable: catalog: 47589, numindb: 1
Update: records affected: 1
GetName: 47589 STARLINK-1994
Hit Count: updated at: Thu, 25 Feb 2021 19:30:40 GMT